"Pseudo-MPEC" for P11kpwO

Created 2021 Sep 20 16:07:07 UT using Find_Orb

Click here for an explanation of pseudo-MPECs

 
 Astrometry: 
     P11kpwO  C2021 09 08fI52fIK:^Qe%9ktNJ#;Oa?BNA?fU),X?xBi8H'Dh`7Y[f]^'3FUtF51
     P11kpwO  C2021 09 08AM9Astrometrya]wmoen^/,`6*NwBa2.Epredacted;iXpigk0n^F51
     P11kpwO  C2021 09 08q+[!Q)oi8UP)`XZ(@lj?YQ3HX2fp]r,UM]^BMQQclick#Z75:sU,F51
     P11kpwO  C2021 09 08cNv%5xwG0dG6J=a;94lherejkL\[fUjLs?(IDrHforB?X`7ZP;\mF51
     P11kpwO  C2021 09 08#w,kiP7o2r5Bb;o'DfH5yb'explanationYlBo_yGEEju\`bTO*pF51

Station data:
(F51) Pan-STARRS 1, Haleakala  (N20.707235 W156.255910)  US/Hawaii.
   Observers N. Primak, A. Schultz, S. Watters, J. Thiel, T. Goggia. Measurer
   PS1 Science Consortium. 1.8-m Ritchey-Chrétien + CCD.

Orbital elements:  P11kpwO
   Perihelion 2021 Nov 19.663666 +/- 108.51 TT = 15:55:40 (JD 2459538.163666)
Epoch 2021 Sep  8.0 TT = JDT 2459465.5   Earth MOID: 0.0382   AutoNEOCP
M 308.29667260 +/- 96.616503        (J2000 ecliptic)
n   0.71154306 +/- 0.613117         Peri.  265.26060 +/- 74.630586
a   1.24261117 +/- 0.713803         Node   155.55400 +/- 7.4409011
e   0.2777109 +/- 0.21452           Incl.    5.30329 +/- 46.998167
P   1.39/505.93d           H 24.5   G  0.15   U 12.4  SR
q 0.89752441 +/- 0.539076    Q 1.58769794 +/- 17.6834
From 5 observations 2021 Sept. 8 (3.2 hr); mean residual 0".10
Residuals in arcseconds: 
210908 F51  .14-  .01+    210908 F51  .22+  .00     210908 F51  .08+  .11+    
210908 F51  .05-  .00     210908 F51  .10-  .11-    

Ephemerides (geocentric):
Date (UTC) HH   RA              Dec         delta   r     elong  mag " sig PA
---- -- -- --  -------------   -----------  ------ ------ -----  --- ---- ---
2021 09 20 16  19 00 52.072   -33 03 56.75  .13920 1.0489 105.1 22.7 367' 138
2021 09 20 17  19 00 45.803   -33 05 48.10  .13917 1.0488 105.0 22.7 374' 138
2021 09 20 18  19 00 39.534   -33 07 39.48  .13913 1.0486 104.9 22.7 381' 139
2021 09 20 19  19 00 33.263   -33 09 30.88  .13909 1.0484 104.9 22.7 389' 139
2021 09 20 20  19 00 26.991   -33 11 22.31  .13905 1.0482 104.8 22.7 396' 140
2021 09 20 21  19 00 20.718   -33 13 13.77  .13901 1.0481 104.7 22.7 404' 141
2021 09 20 22  19 00 14.443   -33 15 05.26  .13898 1.0479 104.7 22.7 412' 141
2021 09 20 23  19 00 08.167   -33 16 56.78  .13894 1.0477 104.6 22.7 420' 142
2021 09 21 00  19 00 01.891   -33 18 48.32  .13890 1.0475 104.5 22.7 428' 143
2021 09 21 01  18 59 55.612   -33 20 39.89  .13886 1.0474 104.5 22.7 437' 143
2021 09 21 02  18 59 49.333   -33 22 31.49  .13882 1.0472 104.4 22.7 445' 144
2021 09 21 03  18 59 43.052   -33 24 23.12  .13879 1.0470 104.3 22.7 454' 145
2021 09 21 04  18 59 36.769   -33 26 14.78  .13875 1.0468 104.3 22.7 463' 145
2021 09 21 05  18 59 30.486   -33 28 06.46  .13871 1.0467 104.2 22.7 472' 146
2021 09 21 06  18 59 24.200   -33 29 58.17  .13867 1.0465 104.1 22.7 481' 147
2021 09 21 07  18 59 17.914   -33 31 49.91  .13864 1.0463 104.1 22.7 490' 147
2021 09 21 08  18 59 11.626   -33 33 41.68  .13860 1.0461 104.0 22.7 500' 148
2021 09 21 09  18 59 05.336   -33 35 33.48  .13856 1.0460 103.9 22.7 509' 149
2021 09 21 10  18 58 59.045   -33 37 25.31  .13852 1.0458 103.9 22.7 518' 149
2021 09 21 11  18 58 52.752   -33 39 17.16  .13848 1.0456 103.8 22.7 528' 150
2021 09 21 12  18 58 46.458   -33 41 09.05  .13845 1.0454 103.7 22.7 537' 151
2021 09 21 13  18 58 40.162   -33 43 00.96  .13841 1.0453 103.7 22.7 546' 151
2021 09 21 14  18 58 33.864   -33 44 52.90  .13837 1.0451 103.6 22.7 555' 152
2021 09 21 15  18 58 27.565   -33 46 44.87  .13833 1.0449 103.5 22.7 564' 153
2021 09 21 16  18 58 21.264   -33 48 36.87  .13830 1.0448 103.5 22.7 573' 153
2021 09 21 17  18 58 14.961   -33 50 28.89  .13826 1.0446 103.4 22.7 582' 154
2021 09 21 18  18 58 08.657   -33 52 20.95  .13822 1.0444 103.3 22.7 590' 155
2021 09 21 19  18 58 02.351   -33 54 13.03  .13818 1.0442 103.3 22.7 598' 155
2021 09 21 20  18 57 56.043   -33 56 05.15  .13815 1.0441 103.2 22.7 606' 156
2021 09 21 21  18 57 49.733   -33 57 57.29  .13811 1.0439 103.1 22.7 614' 156
2021 09 21 22  18 57 43.421   -33 59 49.46  .13807 1.0437 103.1 22.7 622' 157
2021 09 21 23  18 57 37.108   -34 01 41.66  .13803 1.0435 103.0 22.7 629' 158
2021 09 22 00  18 57 30.792   -34 03 33.89  .13799 1.0434 102.9 22.7 636' 158
2021 09 22 01  18 57 24.475   -34 05 26.15  .13796 1.0432 102.9 22.7 643' 159
2021 09 22 02  18 57 18.155   -34 07 18.44  .13792 1.0430 102.8 22.7 650' 159
2021 09 22 03  18 57 11.834   -34 09 10.76  .13788 1.0428 102.7 22.7 656' 160
2021 09 22 04  18 57 05.511   -34 11 03.10  .13784 1.0427 102.7 22.7 663' 160
2021 09 22 05  18 56 59.185   -34 12 55.48  .13781 1.0425 102.6 22.7 669' 161
2021 09 22 06  18 56 52.858   -34 14 47.89  .13777 1.0423 102.5 22.7 674' 161
2021 09 22 07  18 56 46.528   -34 16 40.32  .13773 1.0421 102.5 22.7 680' 162
2021 09 22 08  18 56 40.196   -34 18 32.79  .13769 1.0420 102.4 22.7 685' 162
2021 09 22 09  18 56 33.862   -34 20 25.28  .13766 1.0418 102.3 22.7 690' 162
2021 09 22 10  18 56 27.526   -34 22 17.81  .13762 1.0416 102.3 22.7 695' 163
2021 09 22 11  18 56 21.188   -34 24 10.36  .13758 1.0415 102.2 22.7 700' 163
2021 09 22 12  18 56 14.847   -34 26 02.94  .13754 1.0413 102.1 22.7 704' 164
2021 09 22 13  18 56 08.505   -34 27 55.56  .13751 1.0411 102.1 22.7 709' 164
2021 09 22 14  18 56 02.159   -34 29 48.20  .13747 1.0409 102.0 22.7 713' 165
2021 09 22 15  18 55 55.812   -34 31 40.88  .13743 1.0408 101.9 22.7 717' 165